Weather History for KHTS - October, 2014

Change the Weather History Date:

Tuesday, October 7, 2014

  Actual Average Record
Temperature  
Mean Temperature 56 °F 59 °F  
Max Temperature 61 °F 71 °F 93 °F (1941)
Min Temperature 50 °F 48 °F 29 °F (1964)
Degree Days  
Heating Degree Days 9 7  
Month to date heating degree days 53 41  
Since 1 July heating degree days 110 99  
Cooling Degree Days 0 1  
Month to date cooling degree days 5 9  
Year to date cooling degree days 966 1120  
Growing Degree Days 6 (Base 50)    
Moisture  
Dew Point 54 °F    
Average Humidity 89    
Maximum Humidity 100    
Minimum Humidity 78    
Precipitation  
Precipitation 0.67 in 0.09 in 1.29 in (1998)
Month to date precipitation 1.72 0.61  
Year to date precipitation 39.32 33.64  
Snow  
Snow 0.00 in - - ()
Month to date snowfall 0.0  
Since 1 September snowfall 0.0  
Snow Depth 0.00 in    
Sea Level Pressure  
Sea Level Pressure 29.86 in    
Wind  
Wind Speed 9 mph (South)    
Max Wind Speed 33 mph    
Max Gust Speed 47 mph    
Visibility 8 miles    
Events Rain , Thunderstorm    
T = Trace of Precipitation, MM = Missing Value Source: NWS Daily Summary

Daily Weather History Graph

Daily Weather History Graph

Search for Another Location

Airport or City:

Trip Planner

Search our weather history database for the weather conditions in past years. The results will help you decide how hot, cold, wet, or windy it might be!

Date:

Astronomy

Oct. 07, 2014 Rise Set
Actual Time 7:31 AM EDT 7:03 PM EDT
Civil Twilight 7:05 AM EDT 7:30 PM EDT
Nautical Twilight 6:34 AM EDT 8:00 PM EDT
Astronomical Twilight 6:03 AM EDT 8:31 PM EDT
Moon 6:38 PM EDT (10/7) 6:27 AM EDT (10/7)
Length of Visible Light 12h 25m
Length of Day
11h 32m
Waxing Gibbous, 99% of the Moon is Illuminated
Oct 7
Waxing Gibbous
Oct 8
Full
Oct 15
Last Quarter
Oct 23
New
Oct 30
First Quarter

Hourly Weather History & Observations

Time (EDT) Temp. Dew Point Humidity Pressure Visibility Wind Dir Wind Speed Gust Speed Precip Events Conditions
12:51 AM 52.0 °F 52.0 °F 100% 29.92 in 10.0 mi Calm Calm - 0.02 in   Clear
1:51 AM 52.0 °F 51.1 °F 97% 29.93 in 10.0 mi South 4.6 mph - N/A   Clear
2:51 AM 52.0 °F 50.0 °F 93% 29.94 in 10.0 mi South 8.1 mph - N/A   Clear
3:51 AM 51.1 °F 50.0 °F 96% 29.93 in 10.0 mi South 6.9 mph - N/A   Clear
4:51 AM 51.1 °F 50.0 °F 96% 29.92 in 10.0 mi SSE 4.6 mph - N/A   Mostly Cloudy
5:51 AM 52.0 °F 50.0 °F 93% 29.92 in 10.0 mi SSE 5.8 mph - N/A   Partly Cloudy
6:51 AM 53.1 °F 51.1 °F 93% 29.93 in 10.0 mi South 8.1 mph - 0.00 in   Mostly Cloudy
7:51 AM 54.0 °F 51.1 °F 90% 29.93 in 10.0 mi South 11.5 mph - 0.00 in   Scattered Clouds
8:51 AM 54.0 °F 52.0 °F 93% 29.92 in 10.0 mi South 11.5 mph 21.9 mph N/A   Partly Cloudy
9:51 AM 57.9 °F 53.1 °F 84% 29.91 in 10.0 mi South 11.5 mph 18.4 mph N/A   Partly Cloudy
10:51 AM 57.9 °F 53.1 °F 84% 29.92 in 10.0 mi SSW 10.4 mph 19.6 mph N/A   Clear
11:51 AM 60.1 °F 54.0 °F 80% 29.91 in 10.0 mi South 10.4 mph 19.6 mph N/A   Partly Cloudy
12:51 PM 61.0 °F 54.0 °F 78% 29.91 in 10.0 mi South 10.4 mph - N/A   Scattered Clouds
1:51 PM 60.1 °F 55.9 °F 86% 29.88 in 10.0 mi South 9.2 mph - 0.01 in Rain Light Rain
2:51 PM 61.0 °F 57.0 °F 87% 29.82 in 10.0 mi South 10.4 mph 19.6 mph 0.00 in   Overcast
3:51 PM 60.1 °F 57.9 °F 93% 29.81 in 9.0 mi South 13.8 mph 17.3 mph 0.00 in Rain Light Rain
4:51 PM 60.1 °F 57.0 °F 90% 29.74 in 10.0 mi SSE 8.1 mph - 0.01 in Rain Light Rain
5:14 PM 60.1 °F 57.0 °F 90% 29.72 in 9.0 mi SSE 10.4 mph 17.3 mph 0.01 in Rain , Thunderstorm Thunderstorms and Rain
5:51 PM 57.9 °F 55.9 °F 93% 29.76 in 0.5 mi NNW 31.1 mph 47.2 mph 0.04 in Rain , Thunderstorm Heavy Thunderstorms and Rain
5:58 PM 55.9 °F 53.1 °F 90% 29.77 in 0.2 mi WSW 11.5 mph 46.0 mph 0.34 in Rain , Thunderstorm Heavy Thunderstorms and Rain
6:03 PM 57.0 °F 55.0 °F 93% 29.78 in 1.2 mi SW 8.1 mph 41.4 mph 0.45 in Rain , Thunderstorm Heavy Thunderstorms and Rain
6:05 PM 57.0 °F 55.0 °F 93% 29.78 in 5.0 mi SW 9.2 mph 23.0 mph 0.45 in Rain , Thunderstorm Heavy Thunderstorms and Rain
6:09 PM 55.9 °F 55.0 °F 97% 29.80 in 10.0 mi SW 9.2 mph - 0.45 in Rain Light Rain
6:51 PM 55.9 °F 55.0 °F 97% 29.79 in 10.0 mi South 4.6 mph - 0.45 in   Mostly Cloudy
7:51 PM 57.0 °F 55.9 °F 96% 29.81 in 8.0 mi SSE 3.5 mph - 0.02 in Rain , Thunderstorm Light Thunderstorms and Rain
8:01 PM 57.0 °F 55.9 °F 96% 29.83 in 3.0 mi Variable 3.5 mph - 0.01 in Rain , Thunderstorm Heavy Thunderstorms and Rain
8:07 PM 55.9 °F 55.9 °F 100% 29.84 in 2.0 mi Calm Calm - 0.08 in Rain , Thunderstorm Thunderstorms and Rain
8:14 PM 57.0 °F 57.0 °F 100% 29.83 in 2.0 mi South 5.8 mph - 0.11 in Rain , Thunderstorm Light Thunderstorms and Rain
8:51 PM 57.0 °F 57.0 °F 100% 29.83 in 5.0 mi South 6.9 mph - 0.13 in Rain , Thunderstorm Light Thunderstorms and Rain
9:19 PM 57.0 °F 57.0 °F 100% 29.86 in 7.0 mi North 4.6 mph - 0.00 in Rain , Thunderstorm Light Thunderstorms and Rain
9:51 PM 57.0 °F 57.0 °F 100% 29.86 in 5.0 mi SW 3.5 mph - 0.01 in Rain , Thunderstorm Light Thunderstorms and Rain
10:27 PM 57.0 °F 57.0 °F 100% 29.89 in 2.5 mi NNW 8.1 mph - 0.00 in Rain , Thunderstorm Light Thunderstorms and Rain
10:49 PM 57.2 °F 57.2 °F 100% 29.89 in 5.0 mi Calm Calm - 0.00 in   Mostly Cloudy
10:51 PM 57.0 °F 55.9 °F 96% 29.88 in 6.0 mi Calm Calm - 0.00 in   Mostly Cloudy
11:51 PM 55.0 °F 55.0 °F 100% 29.90 in 4.0 mi SSW 3.5 mph - N/A   Partly Cloudy